STARLINK-4369 (53191 NORAD) Tracking and Keplerian Element Data

This shows tracking and keplerian element data for the satellite.

Feedback or suggestion? Click here.




ElementValue
Catalog53191
NameSTARLINK-4369
Epoch Orbit1072
Epoch Day270.17897808
Epoch Year2022
RAAN330.0079
Inclination97.656
Eccentricity0.0001813
Argument of Perigee90.4216
Mean Anonmoly269.7216
Mean Motion15.0125807
Decay Rate-1.67E-06
L11 53191U 22084C 22270.17897808 -.00000167 00000+0 -84287-5 0 9995
L22 53191 97.6560 330.0079 0001813 90.4216 269.7216 15.01258070 10723

Live tracking and technical data element details for STARLINK-4369 (NORAD 53191). STARLINK-4369 can be tracked NOW for your location showing map with azimuth and elevation plus other details from your city location.

Track the satellite on the map from your city or location and see movement details for azimuth, elevation, latitude, longitude, range, height, and movement on the map or in text.







IsCatalogInMostPopularTable: catalog: 53191, numindb: 8
Update: records affected: 1



GetName: 53191 STARLINK-4369

Hit Count: updated at: Wed, 28 Sep 2022 22:26:06 GMT